{"data":{"norad_id":64271,"intl_designator":"2025-120R","name":"STARLINK-34342","alt_names":[],"object_type":"PAYLOAD","status":"ACTIVE","operator":null,"country":"US","launch_date":"2025-06-04","launch_site_code":"AFWTR","launch_vehicle":null,"mission":null,"orbit_class":"UNKNOWN","rcs_meters":null,"size_class":null,"mass_kg":null,"dimensions":null,"purposes":["comms"],"wikipedia_slug":null,"has_3d_model":false,"image_url":null,"decayed_at":null,"tle_current":{"epoch":"2026-09-20T02:06:40.939776Z","epoch_age_seconds":173172,"freshness":"STALE","line1":"1 64271U 25120R   26263.08797384  .00013631  00000+0  41370-3 0  9996","line2":"2 64271  53.1529 291.3049 0002775  93.5669 266.5651 15.34409233 73661","mean_motion":15.34409233,"eccentricity":0.0002775,"inclination_deg":53.1529,"raan_deg":291.3049,"arg_perigee_deg":93.5669,"mean_anomaly_deg":266.5651,"bstar":0.0004137,"rev_number":7366,"period_min":93.847193371261,"perigee_km":460.77747237152,"apogee_km":464.57412347437,"semimajor_km":6840.8127979229,"source":"CELESTRAK","updated_at":"2026-09-21T09:00:35.284728Z"}}}